timestamp,surface_pressure_avg,surface_temp_avg,battery_voltage,lat,long
2019-03-08 00:00:00+00:00,336.6497,-0.7,12.97,47.84626,-54.09684
2019-03-08 00:10:00+00:00,338.8947,-0.7,12.89,47.84626,-54.09684
2019-03-08 00:20:00+00:00,337.088,-0.7,12.97,47.84626,-54.09684
2019-03-08 00:30:00+00:00,337.058,-0.7,12.97,47.84626,-54.09684
2019-03-08 00:40:00+00:00,341.0596,-0.7,12.97,47.84626,-54.09684
2019-03-08 00:50:00+00:00,342.2496,-0.76,12.97,47.84626,-54.09684
2019-03-08 01:00:00+00:00,336.818,-0.76,12.89,47.84626,-54.09684
2019-03-08 01:10:00+00:00,332.4763,-0.76,12.81,47.84626,-54.09684
2019-03-08 01:20:00+00:00,331.6146,-0.76,12.89,47.84626,-54.09684
2019-03-08 01:30:00+00:00,330.2347,-0.78,12.89,47.84626,-54.09684
2019-03-08 01:40:00+00:00,329.3697,-0.8,12.89,47.84626,-54.09684
2019-03-08 01:50:00+00:00,326.5746,-0.8,12.89,47.84626,-54.09684
2019-03-08 02:00:00+00:00,320.863,-0.8,12.81,47.84626,-54.09684
2019-03-08 02:10:00+00:00,318.1997,-0.8,12.73,47.84626,-54.09684
2019-03-08 02:20:00+00:00,315.2163,-0.8,12.81,47.84626,-54.09684
2019-03-08 02:30:00+00:00,313.5997,-0.8,12.81,47.84626,-54.09684
2019-03-08 02:40:00+00:00,311.4197,-0.82,12.89,47.84626,-54.09684
2019-03-08 02:50:00+00:00,308.2263,-0.83,12.89,47.84626,-54.09684
2019-03-08 03:00:00+00:00,302.3597,-0.83,12.81,47.84626,-54.09684
2019-03-08 03:10:00+00:00,292.463,-0.82,12.73,47.84626,-54.09684
2019-03-08 03:20:00+00:00,286.728,-0.81,12.81,47.84626,-54.09684
2019-03-08 03:30:00+00:00,283.2597,-0.82,12.81,47.84626,-54.09684
2019-03-08 03:40:00+00:00,276.468,-0.82,12.81,47.84626,-54.09684
2019-03-08 03:50:00+00:00,265.723,-0.83,12.89,47.84626,-54.09684
2019-03-08 04:00:00+00:00,259.0047,-0.84,12.73,47.84626,-54.09684
2019-03-08 04:10:00+00:00,253.5581,-0.85,12.65,47.84626,-54.09684
2019-03-08 04:20:00+00:00,243.3714,-0.88,12.81,47.84626,-54.09684
2019-03-08 04:30:00+00:00,231.4447,-0.9,12.81,47.84626,-54.09684
2019-03-08 04:40:00+00:00,222.2681,-0.9,12.81,47.84626,-54.09684
2019-03-08 04:50:00+00:00,214.2682,-0.9,12.81,47.84626,-54.09684
2019-03-08 05:00:00+00:00,205.6181,-0.9,12.73,47.84626,-54.09684
2019-03-08 05:10:00+00:00,199.4381,-0.9,12.65,47.84626,-54.09684
2019-03-08 05:20:00+00:00,195.5881,-0.9,12.73,47.84626,-54.09684
2019-03-08 05:30:00+00:00,187.1414,-0.9,12.73,47.84626,-54.09684
2019-03-08 05:40:00+00:00,180.6432,-0.9,12.81,47.84626,-54.09684
2019-03-08 05:50:00+00:00,178.4298,-0.9,12.81,47.84626,-54.09684
2019-03-08 06:00:00+00:00,178.1698,-0.9,12.73,47.84626,-54.09684
2019-03-08 06:10:00+00:00,177.5248,-0.9,12.65,47.84626,-54.09684
2019-03-08 06:20:00+00:00,177.4248,-0.9,12.73,47.84626,-54.09684
2019-03-08 06:30:00+00:00,179.4231,-0.9,12.73,47.84626,-54.09684
2019-03-08 06:40:00+00:00,183.3498,-0.9,12.73,47.84626,-54.09684
2019-03-08 06:50:00+00:00,187.0498,-0.9,12.73,47.84626,-54.09684
2019-03-08 07:00:00+00:00,187.5098,-0.9,12.65,47.84626,-54.09684
2019-03-08 07:10:00+00:00,189.3631,-0.9,12.65,47.84626,-54.09684
2019-03-08 07:20:00+00:00,195.6481,-0.9,12.73,47.84626,-54.09684
2019-03-08 07:30:00+00:00,199.9714,-0.89,12.73,47.84626,-54.09684
2019-03-08 07:40:00+00:00,200.3581,-0.9,12.73,47.84626,-54.09684
2019-03-08 07:50:00+00:00,201.4915,-0.9,12.73,47.84626,-54.09684
2019-03-08 08:00:00+00:00,209.3765,-0.9,12.65,47.84626,-54.09684
2019-03-08 08:10:00+00:00,219.4531,-0.9,12.57,47.84626,-54.09684
2019-03-08 08:20:00+00:00,226.0131,-0.9,12.65,47.84626,-54.09684
2019-03-08 08:30:00+00:00,232.9665,-0.9,12.65,47.84626,-54.09684
2019-03-08 08:40:00+00:00,238.8865,-0.9,12.73,47.84626,-54.09684
2019-03-08 08:50:00+00:00,242.9147,-0.91,12.73,47.84626,-54.09684
2019-03-08 09:00:00+00:00,248.1598,-0.92,12.65,47.84626,-54.09684
2019-03-08 09:10:00+00:00,254.6297,-0.96,12.57,47.84626,-54.09684
2019-03-08 09:20:00+00:00,261.3148,-1.0,12.65,47.84626,-54.09684
2019-03-08 09:30:00+00:00,264.9714,-1.0,12.65,47.84626,-54.09684
2019-03-08 09:40:00+00:00,267.4781,-1.0,12.65,47.84626,-54.09684
2019-03-08 09:50:00+00:00,273.6381,-0.98,12.73,47.84626,-54.09684
2019-03-08 10:00:00+00:00,283.0381,-0.99,12.57,47.84626,-54.09684
2019-03-08 10:10:00+00:00,291.3314,-1.0,12.57,47.84626,-54.09684
2019-03-08 10:20:00+00:00,294.8163,-1.0,12.65,47.84626,-54.09684
2019-03-08 10:30:00+00:00,299.7463,-1.0,12.97,47.84626,-54.09684
2019-03-08 10:40:00+00:00,308.3713,-0.99,13.05,47.84626,-54.09684
2019-03-08 10:50:00+00:00,318.033,-0.98,13.53,47.84626,-54.09684
2019-03-08 11:00:00+00:00,322.9646,-0.95,15.11,47.84626,-54.09684
2019-03-08 11:10:00+00:00,326.2496,-0.98,16.63,47.84626,-54.09684
2019-03-08 11:20:00+00:00,332.0696,-0.97,17.18,47.84626,-54.09684
2019-03-08 11:30:00+00:00,343.4479,-0.95,17.27,47.84626,-54.09684
2019-03-08 11:40:00+00:00,350.9896,-0.95,17.18,47.84626,-54.09684
2019-03-08 11:50:00+00:00,355.4747,-1.0,14.96,47.84626,-54.09684
2019-03-08 12:00:00+00:00,360.7379,-1.0,17.11,47.84626,-54.09684
2019-03-08 12:10:00+00:00,364.3862,-1.0,14.88,47.84626,-54.09684
2019-03-08 12:20:00+00:00,365.1829,-1.0,15.2,47.84626,-54.09684
2019-03-08 12:30:00+00:00,371.1413,-1.0,14.88,47.84626,-54.09684
2019-03-08 12:40:00+00:00,375.2313,-1.0,17.34,47.84626,-54.09684
2019-03-08 12:50:00+00:00,372.793,-1.0,17.27,47.84626,-54.09684
2019-03-08 13:00:00+00:00,373.3829,-1.0,15.83,47.84626,-54.09684
2019-03-08 13:10:00+00:00,377.0312,-1.0,16.39,47.84626,-54.09684
2019-03-08 13:20:00+00:00,376.5079,-1.0,16.31,47.84626,-54.09684
2019-03-08 13:30:00+00:00,375.8696,-1.0,15.83,47.84626,-54.09684
2019-03-08 13:40:00+00:00,377.2362,-1.01,15.67,47.84626,-54.09684
2019-03-08 13:50:00+00:00,373.9196,-1.03,15.6,47.84626,-54.09684
2019-03-08 14:00:00+00:00,367.3096,-1.05,15.35,47.84626,-54.09684
2019-03-08 14:10:00+00:00,365.4479,-1.05,15.44,47.84626,-54.09684
2019-03-08 14:20:00+00:00,363.2446,-1.09,15.44,47.84626,-54.09684
2019-03-08 14:30:00+00:00,355.8862,-1.1,15.35,47.84626,-54.09684
2019-03-08 14:40:00+00:00,353.2097,-1.09,15.35,47.84626,-54.09684
2019-03-08 14:50:00+00:00,352.5079,-1.1,15.27,47.84626,-54.09684
2019-03-08 15:00:00+00:00,346.3563,-1.1,15.11,47.84626,-54.09684
2019-03-08 15:10:00+00:00,335.6146,-1.06,15.11,47.84626,-54.09684
2019-03-08 15:20:00+00:00,329.428,-1.04,15.2,47.84626,-54.09684
2019-03-08 15:30:00+00:00,322.2379,-1.05,15.11,47.84626,-54.09684
2019-03-08 15:40:00+00:00,311.1713,-1.02,15.11,47.84626,-54.09684
2019-03-08 15:50:00+00:00,303.3413,-1.0,15.11,47.84626,-54.09684
2019-03-08 16:00:00+00:00,296.2246,-1.01,14.96,47.84626,-54.09684
2019-03-08 16:10:00+00:00,285.183,-1.02,14.96,47.84626,-54.09684
2019-03-08 16:20:00+00:00,273.8381,-1.01,15.04,47.84626,-54.09684
2019-03-08 16:30:00+00:00,265.2581,-1.01,14.96,47.84626,-54.09684
2019-03-08 16:40:00+00:00,258.8548,-1.0,14.88,47.84626,-54.09684
2019-03-08 16:50:00+00:00,248.8948,-1.0,14.96,47.84626,-54.09684
2019-03-08 17:00:00+00:00,237.8148,-1.0,14.72,47.84626,-54.09684
2019-03-08 17:10:00+00:00,227.9297,-1.0,14.8,47.84626,-54.09684
2019-03-08 17:20:00+00:00,221.4881,-0.95,14.64,47.84626,-54.09684
2019-03-08 17:30:00+00:00,215.8698,-0.9,14.72,47.84626,-54.09684
2019-03-08 17:40:00+00:00,208.3981,-0.9,14.88,47.84626,-54.09684
2019-03-08 17:50:00+00:00,205.3448,-0.9,14.8,47.84626,-54.09684
2019-03-08 18:00:00+00:00,204.9665,-0.9,14.64,47.84626,-54.09684
2019-03-08 18:10:00+00:00,200.5981,-0.9,14.56,47.84626,-54.09684
2019-03-08 18:20:00+00:00,196.3681,-0.9,14.72,47.84626,-54.09684
2019-03-08 18:30:00+00:00,196.0698,-0.9,14.72,47.84626,-54.09684
2019-03-08 18:40:00+00:00,196.2331,-0.9,14.72,47.84626,-54.09684
2019-03-08 18:50:00+00:00,195.5981,-0.89,14.64,47.84626,-54.09684
2019-03-08 19:00:00+00:00,194.1864,-0.9,14.56,47.84626,-54.09684
2019-03-08 19:10:00+00:00,193.4931,-0.9,14.56,47.84626,-54.09684
2019-03-08 19:20:00+00:00,194.7115,-0.9,14.56,47.84626,-54.09684
2019-03-08 19:30:00+00:00,196.0098,-0.9,14.56,47.84626,-54.09684
2019-03-08 19:40:00+00:00,197.2481,-0.9,14.56,47.84626,-54.09684
2019-03-08 19:50:00+00:00,205.0481,-0.9,14.56,47.84626,-54.09684
2019-03-08 20:00:00+00:00,214.1481,-0.9,14.4,47.84626,-54.09684
2019-03-08 20:10:00+00:00,219.0131,-0.9,14.24,47.84626,-54.09684
2019-03-08 20:20:00+00:00,224.6931,-0.9,14.32,47.84626,-54.09684
2019-03-08 20:30:00+00:00,228.9698,-0.92,14.32,47.84626,-54.09684
2019-03-08 20:40:00+00:00,231.2365,-0.97,14.24,47.84626,-54.09684
2019-03-08 20:50:00+00:00,235.2498,-0.97,14.24,47.84626,-54.09684
2019-03-08 21:00:00+00:00,241.8647,-0.97,14.08,47.84626,-54.09684
2019-03-08 21:10:00+00:00,245.8648,-1.0,13.92,47.84626,-54.09684
2019-03-08 21:20:00+00:00,249.1031,-1.0,13.84,47.84626,-54.09684
2019-03-08 21:30:00+00:00,255.7564,-1.0,13.84,47.84626,-54.09684
2019-03-08 21:40:00+00:00,263.3031,-1.0,13.76,47.84626,-54.09684
2019-03-08 21:50:00+00:00,269.0397,-1.0,13.76,47.84626,-54.09684
2019-03-08 22:00:00+00:00,273.9097,-1.0,13.6,47.84626,-54.09684
2019-03-08 22:10:00+00:00,280.3914,-1.0,13.44,47.84626,-54.09684
2019-03-08 22:20:00+00:00,285.8581,-1.0,13.44,47.84626,-54.09684
2019-03-08 22:30:00+00:00,288.2214,-1.0,13.37,47.84626,-54.09684
2019-03-08 22:40:00+00:00,290.6397,-1.0,13.37,47.84626,-54.09684
2019-03-08 22:50:00+00:00,296.2047,-1.0,13.37,47.84626,-54.09684
2019-03-08 23:00:00+00:00,303.5197,-1.0,13.21,47.84626,-54.09684
2019-03-08 23:10:00+00:00,309.2946,-1.0,13.05,47.84626,-54.09684
2019-03-08 23:20:00+00:00,314.708,-1.0,13.13,47.84626,-54.09684
2019-03-08 23:30:00+00:00,317.4413,-1.0,13.05,47.84626,-54.09684
2019-03-08 23:40:00+00:00,323.5797,-1.0,13.05,47.84626,-54.09684
2019-03-08 23:50:00+00:00,332.6863,-1.0,13.05,47.84626,-54.09684
